Theta_e
300 300 300 300 299 299 299 299 298 298 298 298 298 298 297 297 297 296 296 296 295 295 295 295 294 293 292 292 292 291 291 291 290 290 290 290 290 290 290 290 290 290 289 289 289 289 289 289 289 289 288 288 288 288 288 287 287 287 286 286 286 286
300 300 300 300 299 299 299 298 298 297 297 297 296 296 296 296 296 296 295 295 295 294 294 293 292 292 291 291 291 290 290 290 290 290 290 290 290 290 289 289 289 289 289 289 288 288 288 288 288 288 288 288 287 287 287 286 286 286 286 286 286 286
300 300 299 299 299 298 298 298 297 297 296 296 296 295 296 296 295 295 295 294 294 293 292 291 291 291 291 290 290 290 289 289 289 290 290 289 289 289 289 289 289 288 288 288 288 288 288 288 288 288 287 287 287 286 286 286 285 285 285 285 285 285
300 299 299 299 298 298 298 297 297 296 296 295 295 295 295 295 295 294 293 293 292 291 291 290 290 290 290 290 289 289 289 289 290 290 289 289 289 289 289 289 288 288 288 288 288 288 287 287 287 287 287 287 286 286 285 285 285 285 285 285 285 285
300 299 299 298 298 298 298 297 296 295 295 295 295 295 294 294 293 293 292 292 291 290 290 289 289 289 289 289 289 289 289 290 289 289 289 289 289 289 288 288 288 288 288 287 287 287 287 287 287 287 287 286 286 285 285 285 285 285 285 284 284 284
299 299 299 299 299 298 297 296 295 294 295 295 294 294 294 293 292 291 291 291 290 290 289 289 289 289 289 289 289 289 290 290 289 289 289 289 289 288 288 288 288 287 287 287 287 287 287 287 287 287 286 285 285 284 284 284 284 284 284 284 284 284
299 299 299 299 299 298 297 295 295 294 295 294 294 293 292 292 291 291 290 290 289 289 289 289 289 288 289 289 289 290 289 290 289 289 289 289 288 288 288 288 287 287 287 287 287 287 287 287 287 286 285 285 284 284 284 284 284 284 284 284 284 284
299 300 300 300 299 297 296 295 295 295 294 294 293 293 292 291 291 290 290 289 289 289 288 288 288 288 289 289 290 290 290 289 289 289 289 288 288 288 288 287 287 287 287 286 286 286 287 287 286 286 285 284 284 284 284 284 284 284 284 284 284 284
300 300 300 299 298 296 295 295 295 295 294 294 293 292 291 291 291 290 289 289 288 288 288 288 288 288 289 290 290 290 290 289 289 289 289 288 288 288 287 287 287 287 287 286 286 286 286 286 286 285 284 284 283 284 284 284 284 284 284 284 284 284
301 300 300 299 297 295 295 295 295 295 294 294 293 292 291 291 290 290 289 289 288 288 288 288 288 289 289 290 290 290 289 289 289 289 288 288 288 288 287 287 287 287 287 286 286 286 286 286 285 284 284 283 283 283 284 284 284 284 284 283 283 284
301 300 299 298 296 295 295 295 295 294 294 294 293 292 292 291 290 289 289 288 288 288 288 288 288 289 290 290 290 290 289 289 289 289 288 288 288 288 287 287 287 287 286 286 286 286 286 285 285 284 283 283 283 283 283 283 283 283 283 283 283 283
300 299 299 297 297 296 296 296 295 295 294 294 293 293 292 292 290 289 289 288 288 288 288 288 288 289 290 290 290 289 289 289 289 289 288 288 288 288 287 287 287 287 286 286 285 285 285 285 284 283 283 283 283 283 283 283 283 283 283 283 283 283
299 299 298 298 298 298 297 297 296 296 295 294 294 293 294 293 291 289 288 288 288 288 287 288 289 290 290 290 289 289 289 289 289 289 288 288 288 287 287 287 287 286 286 285 285 285 285 284 283 283 282 282 282 283 283 283 283 283 283 283 283 283
300 300 299 299 299 299 299 298 297 296 296 295 294 294 294 293 291 289 288 288 287 287 287 288 289 290 289 289 289 289 289 289 289 288 288 288 288 287 287 287 287 286 286 285 285 285 284 283 283 282 282 282 282 282 283 283 283 283 283 283 283 283
300 300 300 300 299 299 299 299 298 297 297 296 295 294 293 293 291 290 289 288 287 287 287 288 289 289 289 289 289 289 289 289 289 288 288 288 287 287 287 287 287 286 285 285 285 284 283 282 282 282 282 282 282 282 282 283 283 283 283 283 282 282
299 299 299 299 299 300 299 299 298 298 297 296 295 293 293 293 292 291 290 289 288 287 287 288 288 289 289 288 289 289 289 289 289 288 288 287 287 287 287 287 286 286 285 285 285 284 283 282 282 282 282 282 282 282 282 283 283 283 282 282 282 282
298 298 299 299 300 300 300 299 298 297 296 295 294 293 293 293 293 293 292 291 289 287 287 287 288 288 288 288 289 289 289 289 288 288 288 287 287 287 287 287 286 286 285 285 285 284 282 282 282 282 282 282 282 282 282 282 282 282 282 282 282 282
298 298 299 299 299 298 298 298 298 297 296 295 294 293 293 293 293 293 293 291 289 288 287 288 288 288 288 289 289 289 289 288 288 288 287 287 287 287 287 286 286 285 285 285 284 284 282 281 281 281 281 282 282 282 282 282 282 282 282 282 282 281
298 299 298 298 298 297 297 297 297 297 296 295 294 293 293 293 293 293 293 292 290 288 287 288 288 289 289 289 289 289 289 288 288 288 287 287 287 287 287 286 286 285 285 285 284 283 282 281 281 281 281 282 282 282 282 282 282 282 282 282 281 281
298 298 297 297 297 297 297 297 297 296 296 295 294 294 294 294 293 293 292 291 289 288 288 289 289 289 289 289 289 289 288 288 288 287 287 287 287 287 287 286 286 285 285 284 284 283 282 281 281 281 281 281 281 282 282 282 282 282 281 281 280 280
298 297 297 296 296 296 296 296 296 295 295 295 294 294 294 293 293 292 292 291 290 289 289 290 289 289 289 288 289 288 288 288 288 287 287 287 287 287 286 286 286 285 285 284 283 282 281 281 281 281 281 281 281 281 281 281 281 281 281 280 280 279
297 297 296 296 295 295 294 294 294 293 293 293 293 293 293 292 292 292 292 291 290 290 290 289 289 288 288 288 288 288 288 288 287 287 287 287 287 287 286 286 286 285 285 284 283 282 281 281 281 281 281 281 281 281 281 281 281 280 280 279 279 279
296 295 295 294 294 293 293 292 292 292 292 291 291 291 291 291 291 291 291 291 290 289 289 288 288 288 288 288 288 288 288 288 287 287 287 287 287 286 286 286 286 285 285 284 282 281 281 281 281 281 281 280 280 280 280 280 280 279 279 279 278 278
295 294 293 293 292 292 292 291 291 291 291 290 290 290 290 291 291 290 290 290 289 289 288 288 288 288 288 288 288 288 288 287 287 287 287 287 286 286 286 286 285 285 285 283 282 281 281 281 281 280 280 280 280 280 279 279 279 278 278 278 278 277
293 293 292 292 292 292 291 291 291 291 290 290 290 290 290 290 290 290 289 289 288 288 288 288 288 288 288 288 288 288 287 287 287 287 287 286 286 286 286 285 285 285 284 283 281 281 280 280 280 280 280 280 279 279 279 278 278 278 277 277 277 276
292 292 292 292 291 291 291 291 291 291 291 290 290 289 289 289 289 289 289 288 288 289 289 289 288 288 288 288 288 287 287 287 287 287 286 286 286 286 285 285 285 285 284 283 281 280 280 280 280 280 279 279 279 279 278 278 278 277 277 276 275 274
292 292 291 291 291 291 291 291 291 291 291 291 290 290 289 289 289 289 289 289 289 289 289 289 288 288 288 288 288 287 287 287 287 286 286 286 285 285 285 285 285 284 283 282 281 280 280 280 280 280 279 279 279 278 278 277 277 277 276 276 275 274
292 292 291 291 291 291 291 291 291 291 291 291 290 290 290 290 289 289 289 289 289 289 289 289 288 288 288 288 287 287 287 287 286 286 286 285 285 285 285 284 284 284 283 281 280 280 280 280 280 279 279 278 278 278 278 277 277 276 276 275 274 275
292 292 292 291 291 291 291 291 291 291 291 291 291 290 290 290 290 290 289 289 289 288 288 288 289 288 288 288 287 287 287 286 286 285 285 285 284 284 284 284 284 283 282 281 280 279 279 279 279 279 278 278 278 278 277 277 276 275 274 274 274 275
292 292 292 292 291 291 291 291 291 291 291 291 291 291 290 290 290 290 289 289 289 288 288 288 288 288 288 288 287 287 287 286 286 285 285 284 284 284 284 284 283 283 282 281 280 279 279 279 279 279 278 278 278 277 276 276 274 273 272 273 274 274
291 291 291 291 291 291 291 291 291 291 291 291 291 291 291 290 290 290 289 289 289 288 288 288 288 288 288 287 287 287 286 286 285 285 284 284 284 284 283 283 283 282 281 280 279 279 279 279 279 278 278 277 277 275 275 274 273 272 272 273 274 274
291 291 291 291 291 291 291 291 291 291 291 290 290 290 290 290 290 290 290 289 289 288 288 288 288 288 288 287 287 286 286 285 285 285 284 284 283 283 283 283 282 281 280 279 279 279 279 279 279 278 277 276 275 274 274 273 272 273 273 274 274 273
291 291 291 291 291 291 291 291 291 291 290 290 290 290 290 290 290 289 289 289 289 288 288 288 288 288 288 287 286 286 285 285 285 285 284 284 283 283 283 283 282 281 280 279 279 279 279 279 278 277 276 275 275 274 273 272 273 274 274 274 273 273
291 291 291 291 291 291 291 291 291 290 290 290 290 290 290 290 289 289 289 289 288 288 288 288 288 288 287 286 286 285 285 284 284 284 284 283 283 282 282 282 281 280 279 279 278 278 278 278 277 277 276 275 275 274 272 272 273 274 274 273 272 272
291 291 291 291 291 291 291 291 291 290 290 290 290 290 290 289 289 289 289 288 288 287 287 287 287 287 286 286 285 285 284 284 283 283 283 282 282 282 281 281 280 279 278 278 278 277 277 277 276 276 275 275 274 273 272 272 274 274 273 272 272 272
291 291 291 291 291 291 291 291 290 290 290 290 290 290 289 289 289 289 288 288 287 287 286 286 286 285 285 285 284 284 283 283 283 282 282 281 281 281 280 280 279 278 278 277 277 276 276 276 275 275 275 275 274 272 272 273 274 273 273 272 272 272
290 290 290 290 290 290 290 290 290 290 290 290 290 290 289 289 289 288 288 287 286 286 285 285 284 284 284 284 283 283 283 283 282 282 281 281 280 280 279 278 277 277 277 277 276 276 276 275 275 275 275 274 273 273 273 273 273 273 272 272 271 271
290 290 290 290 290 290 290 290 290 290 290 290 290 289 289 289 288 288 287 287 286 284 284 283 283 283 283 282 282 282 282 282 282 281 281 280 280 279 278 277 276 276 276 276 276 275 275 275 274 274 274 273 273 273 273 273 272 272 272 272 271 271
Wind_Speed
34 32 31 30 28 27 26 25 24 23 22 20 19 17 16 16 15 15 14 13 12 12 11 10 9 9 8 6 6 5 5 5 4 5 5 6 7 8 9 10 11 12 13 14 16 17 17 18 18 19 19 19 20 20 20 21 21 21 22 22 23 24
35 34 32 31 29 28 26 26 25 24 23 22 21 19 18 17 16 15 15 15 14 13 13 12 10 9 8 7 6 6 6 6 6 6 6 6 7 8 9 10 12 13 14 15 16 17 18 18 19 19 19 19 19 19 19 20 20 21 22 22 23 24
36 34 33 31 30 29 28 27 26 25 25 24 22 20 18 18 17 16 16 16 15 14 13 12 10 9 8 8 7 7 7 7 6 6 6 6 7 8 10 11 13 14 16 17 18 19 19 20 20 20 20 20 20 20 20 21 21 22 23 24 26 26
38 36 35 33 31 30 29 28 28 27 26 25 23 21 19 18 18 18 17 17 16 15 13 12 11 10 9 9 8 8 8 8 7 6 6 7 8 10 12 13 15 16 18 19 20 20 21 21 22 22 22 22 22 22 22 23 23 24 26 27 28 29
39 37 36 34 32 31 30 30 30 29 27 25 23 21 20 19 18 18 18 17 16 15 14 13 12 11 10 10 10 9 8 8 7 7 7 9 10 12 14 16 17 18 19 20 21 21 22 22 22 22 22 23 23 24 24 25 26 27 29 30 30 31
39 38 36 35 34 33 33 33 32 29 27 26 24 22 21 20 20 19 19 18 17 16 15 15 13 12 12 11 10 10 9 8 7 8 9 11 12 14 16 17 19 19 20 21 22 22 22 22 22 22 23 23 24 25 26 27 28 29 30 31 31 32
39 39 38 37 38 37 36 35 32 30 28 27 25 23 22 22 21 20 20 19 19 18 17 16 14 14 13 12 11 10 9 8 8 9 11 12 14 16 17 19 20 21 22 22 23 23 22 22 23 23 24 24 25 26 27 28 29 30 31 32 32 33
41 41 41 41 41 40 38 35 33 31 29 27 25 24 23 23 22 21 21 21 20 19 18 17 16 15 14 13 12 11 10 9 9 10 12 13 15 17 18 20 21 22 23 24 24 24 23 23 23 24 25 25 26 27 28 29 30 31 31 32 32 33
44 44 44 43 42 40 38 36 34 32 30 28 26 25 24 24 23 23 23 22 21 20 19 19 17 16 15 14 13 11 10 9 10 11 12 14 16 18 19 21 23 24 25 25 25 24 24 24 24 25 25 26 27 27 28 29 30 31 32 32 32 33
47 46 46 45 43 40 37 36 34 32 30 28 27 26 26 25 25 25 24 24 23 22 21 20 18 17 16 14 13 11 10 10 11 12 13 15 16 18 20 22 24 25 26 26 25 24 24 24 25 25 26 26 27 28 29 30 31 31 32 32 32 32
49 48 48 46 42 39 38 37 35 33 31 29 28 28 27 27 26 26 26 25 25 24 23 21 19 18 16 14 13 11 10 11 11 12 14 15 17 19 21 23 25 26 26 26 25 24 24 24 25 26 26 27 27 28 29 30 30 31 31 31 32 32
48 47 46 43 41 39 39 38 36 34 33 31 30 29 28 28 28 28 27 27 26 25 24 22 20 19 17 15 13 12 12 12 13 13 14 16 18 20 22 24 26 26 27 26 26 25 24 25 25 26 26 26 27 28 28 29 30 30 31 31 32 33
43 43 43 42 41 40 39 39 37 36 35 33 32 31 29 29 29 29 29 28 27 26 25 24 22 19 18 16 15 14 13 14 14 14 16 17 18 20 22 24 26 27 27 27 26 25 25 25 26 26 26 26 26 27 28 29 30 30 31 31 32 34
33 35 37 38 38 39 39 39 38 37 36 35 34 33 31 31 30 29 29 28 27 27 27 25 23 21 19 17 16 16 15 16 16 16 17 18 19 21 23 25 26 27 28 28 27 26 25 26 26 26 26 25 25 26 27 29 30 30 31 32 33 34
22 24 25 27 30 31 32 34 35 36 36 36 35 34 32 30 29 28 28 28 28 29 28 27 24 23 21 19 18 18 18 18 18 18 19 19 20 22 23 25 27 28 28 29 28 27 26 26 26 25 25 25 25 26 27 29 30 30 31 32 33 33
20 20 21 22 23 23 24 26 28 31 33 34 34 33 31 29 28 28 28 28 29 30 29 28 26 24 22 21 20 20 21 20 20 20 20 20 21 22 24 26 27 28 29 29 28 27 27 27 26 26 25 25 25 26 27 28 29 30 31 32 33 33
22 21 20 19 19 20 20 21 23 26 28 30 32 32 30 27 27 27 28 29 30 30 30 28 27 25 23 22 22 23 23 22 21 21 21 21 22 23 25 26 28 29 30 30 29 28 27 27 26 26 25 25 25 26 27 28 30 31 32 33 33 34
20 19 18 17 17 18 19 19 20 22 25 28 30 30 28 26 27 28 28 29 30 30 30 28 27 25 24 24 24 24 24 23 22 22 22 22 23 24 25 27 29 30 31 30 29 29 28 27 27 26 25 25 25 27 28 29 30 32 33 33 34 34
17 17 17 17 17 18 18 18 20 21 23 25 27 27 27 27 28 29 29 29 29 29 29 27 26 25 25 24 25 24 24 23 23 23 23 23 24 25 26 28 30 31 31 30 29 29 28 28 27 26 25 25 26 27 28 29 31 32 33 34 34 34
18 18 18 18 18 18 17 17 19 21 23 24 25 26 27 28 28 29 29 29 28 28 27 26 25 25 24 24 25 24 24 24 24 24 24 24 25 25 27 29 30 31 31 30 29 29 29 28 26 25 25 25 26 27 28 30 31 32 33 33 33 34
19 19 19 19 19 18 17 17 18 19 21 22 23 25 26 26 26 26 26 26 25 25 25 24 24 24 24 24 24 24 25 25 25 25 25 25 26 27 28 29 31 31 31 29 28 28 29 28 26 25 25 25 26 27 28 29 31 31 32 31 32 32
20 19 19 19 18 17 17 17 18 18 19 20 22 23 25 25 24 23 22 23 23 23 23 23 23 23 23 24 24 25 26 26 26 26 26 26 27 28 28 30 31 31 31 29 28 28 28 28 26 25 25 25 26 26 27 29 30 30 30 31 31 32
19 18 17 17 17 18 18 18 19 19 20 22 24 25 26 26 24 23 23 23 23 23 23 23 23 23 23 24 25 26 27 27 27 27 27 28 28 28 29 30 30 31 31 29 28 27 27 27 26 25 25 25 26 26 26 27 28 28 29 30 31 31
18 17 17 17 18 20 20 19 19 19 21 24 25 25 26 25 24 24 25 24 24 23 23 22 22 22 23 25 26 27 28 28 28 29 29 29 29 29 30 30 30 31 31 29 28 27 27 27 26 25 25 26 26 25 25 26 26 26 26 28 29 30
18 18 18 19 21 21 21 20 19 19 21 23 23 23 25 26 26 26 26 25 24 23 22 21 21 22 24 25 26 28 28 29 30 30 30 30 30 30 30 30 30 31 31 30 28 27 27 26 26 25 25 25 25 25 24 24 24 23 23 25 27 28
18 18 19 21 23 23 23 22 21 21 22 22 21 23 26 26 26 27 26 26 25 24 23 22 21 22 24 26 27 29 29 30 31 31 31 31 30 30 30 30 30 30 30 30 29 28 27 27 26 25 25 25 25 24 23 23 22 21 22 23 24 25
18 19 20 22 24 26 26 25 24 24 24 22 21 24 26 26 27 28 27 28 27 26 25 24 23 23 24 26 28 29 30 31 32 32 32 31 30 30 30 30 30 30 30 30 29 29 28 28 27 26 25 25 25 24 23 22 21 21 21 21 23 24
21 22 23 24 27 29 29 28 28 27 26 23 22 25 26 27 28 29 29 30 30 29 28 26 24 24 25 26 28 29 31 32 33 33 32 31 30 29 29 30 30 30 30 30 30 30 29 29 28 28 26 25 24 24 23 22 21 21 21 22 24 27
24 25 26 28 29 30 31 31 31 30 28 26 25 26 28 30 31 31 31 32 32 31 30 28 26 26 26 26 27 28 30 32 32 33 32 30 29 29 29 30 30 29 29 30 30 30 30 29 29 28 27 26 25 24 24 23 22 21 22 25 28 30
26 27 29 30 31 31 33 34 34 34 32 31 30 29 30 32 33 34 35 35 34 33 32 30 29 28 27 27 27 28 30 31 31 32 31 30 29 30 30 30 30 29 29 30 30 30 30 29 29 28 28 27 25 24 24 22 20 19 22 27 30 31
29 29 30 31 31 32 34 36 36 36 36 35 34 34 34 34 35 36 37 37 37 36 35 33 32 31 30 30 29 29 30 30 31 31 31 30 30 30 30 30 30 29 29 29 30 29 29 30 29 28 27 26 23 22 21 19 18 18 22 27 30 30
29 30 31 32 31 32 33 35 36 37 39 39 38 38 38 38 38 39 40 40 40 39 38 36 35 33 33 32 31 31 31 30 31 31 31 30 30 30 30 31 30 29 29 30 29 28 29 29 28 27 26 24 22 21 19 17 17 20 24 27 28 27
29 31 32 32 31 32 34 35 36 37 38 39 40 41 42 41 42 42 42 43 43 42 41 39 36 35 34 34 32 32 32 31 31 31 31 31 31 30 30 30 30 29 30 30 30 29 29 29 28 27 25 23 22 21 19 17 20 23 24 25 26 25
29 31 32 32 32 33 34 35 36 36 36 37 38 40 41 42 43 44 44 44 44 44 43 41 38 36 35 34 33 33 32 31 31 31 31 32 31 31 30 29 29 29 30 30 29 29 29 28 27 26 25 24 23 20 18 19 22 23 23 24 24 23
28 29 30 31 31 32 33 35 35 34 34 34 35 37 38 40 41 41 42 43 44 44 44 43 41 38 36 34 33 32 31 31 31 31 31 31 32 31 31 29 28 29 29 29 29 28 27 27 26 25 24 24 23 20 20 22 22 22 22 23 23 21
27 28 29 29 30 31 32 33 33 32 32 33 34 36 36 37 37 37 38 40 41 42 43 43 41 37 34 33 32 31 31 31 31 31 31 30 30 30 31 30 29 29 29 29 28 27 25 25 24 24 24 24 22 21 24 24 22 20 22 23 21 20
27 28 28 29 29 30 31 32 32 33 34 34 35 36 35 34 34 34 35 36 37 39 41 41 39 35 33 32 31 30 31 31 32 32 32 31 30 30 30 30 29 29 30 29 28 26 25 24 24 24 23 22 22 25 27 24 21 20 22 21 20 19
27 28 28 28 29 30 31 31 32 33 33 34 34 34 34 33 33 33 33 34 34 36 38 38 36 33 31 30 30 30 31 32 32 33 32 31 31 31 30 29 28 28 29 28 27 26 25 24 24 24 22 22 25 28 27 23 20 20 21 21 20 19
Wind_Direction
182 182 183 183 184 185 184 183 184 185 187 189 189 188 184 178 176 178 182 185 189 193 195 199 202 203 205 208 214 221 229 242 255 265 275 283 291 298 302 308 312 315 318 320 321 321 321 320 319 317 315 313 311 310 308 308 308 308 309 309 309 310
185 185 187 188 189 189 189 189 190 191 192 193 193 192 188 186 185 187 191 194 196 200 202 202 203 203 208 216 222 229 234 243 252 260 271 282 291 300 307 313 318 320 323 324 323 323 321 319 317 315 313 311 310 309 309 309 309 309 311 311 312 312
188 189 191 192 193 194 194 195 196 197 197 197 196 195 193 193 193 194 198 201 202 204 204 204 205 207 215 221 222 228 235 242 252 259 270 285 297 306 313 317 321 323 323 323 322 320 319 317 316 314 313 312 312 312 312 313 314 314 315 315 316 316
191 192 195 196 197 198 199 200 202 202 201 201 199 199 198 199 201 201 203 206 205 205 206 207 210 212 216 219 221 228 236 242 251 262 278 294 305 313 318 321 323 324 323 322 321 319 318 316 316 314 314 314 315 316 316 317 318 319 319 320 320 320
195 196 198 199 200 202 204 206 207 206 204 204 204 203 203 203 205 206 207 208 208 208 209 211 213 215 216 218 222 229 235 242 254 270 288 303 313 319 323 324 324 324 323 322 320 319 318 316 315 314 314 316 317 318 319 320 321 322 323 323 322 322
199 199 200 202 203 206 208 209 209 208 207 208 207 207 207 207 208 209 210 211 211 213 213 214 215 216 216 219 224 229 235 246 264 282 299 313 320 324 325 325 325 324 322 322 321 320 319 316 315 315 315 316 317 319 320 321 322 323 323 323 323 322
203 203 203 206 208 210 211 211 211 211 211 211 210 210 210 210 211 213 214 215 216 216 216 216 216 216 219 222 225 231 241 258 277 295 309 319 323 325 326 326 325 324 323 323 322 321 318 316 315 315 316 317 317 318 319 321 322 322 322 322 322 322
206 207 208 210 212 212 212 212 213 214 215 214 213 214 214 215 216 217 219 219 219 219 218 218 218 219 222 225 229 239 253 271 289 302 313 320 322 324 325 325 325 325 324 323 322 320 317 315 314 314 315 317 317 318 319 320 321 321 321 321 321 321
210 211 212 214 215 216 215 215 216 217 217 216 215 216 218 220 220 220 221 221 220 220 220 220 222 224 227 230 237 249 263 279 294 304 312 318 321 322 323 324 325 325 325 323 321 319 315 314 313 314 315 316 316 317 318 319 320 320 320 320 320 320
214 214 216 217 218 218 218 220 221 221 221 221 219 219 220 222 223 223 224 223 222 221 222 223 226 228 232 237 245 257 270 283 294 303 310 315 317 318 320 323 324 325 324 323 320 317 314 312 313 313 314 315 315 316 317 318 319 319 319 319 319 319
217 218 219 220 221 221 222 223 223 223 224 223 222 223 224 224 225 225 225 225 224 224 224 226 229 233 238 244 252 262 273 284 293 300 305 310 313 314 317 320 323 324 322 321 318 315 313 312 312 313 314 314 315 315 317 318 318 318 318 318 318 318
220 221 223 224 225 226 226 227 227 227 226 224 223 224 225 226 227 227 227 227 227 227 228 230 232 238 244 248 255 264 274 283 289 294 299 305 308 309 313 317 321 322 320 319 317 314 313 312 312 313 313 314 314 315 317 317 317 318 318 318 319 318
226 227 228 230 231 232 233 234 233 232 231 228 226 226 227 227 228 228 228 229 229 230 232 233 236 242 247 251 257 265 274 282 284 288 294 298 301 304 309 315 319 320 319 318 316 313 312 312 311 312 312 313 314 315 316 317 317 318 319 319 319 319
227 230 232 234 236 238 240 241 239 237 235 232 229 228 228 228 227 228 229 230 231 233 235 237 240 246 250 254 260 267 275 280 279 282 288 291 295 301 308 314 317 319 318 316 314 312 311 311 311 311 311 312 314 315 315 317 318 318 319 319 320 320
228 234 236 238 239 241 243 245 243 241 238 234 231 228 227 227 227 229 231 232 233 235 237 239 243 248 253 258 265 271 275 275 274 276 281 286 292 300 308 314 316 317 316 315 313 311 310 310 310 310 310 311 313 314 316 317 317 318 318 319 319 320
241 243 242 241 241 240 241 241 240 241 239 235 231 229 228 229 229 231 233 234 235 236 237 241 245 250 255 261 267 272 273 271 269 272 277 283 291 300 308 313 315 315 314 312 311 309 309 309 309 308 309 310 313 315 315 316 316 317 317 317 318 319
240 239 235 233 230 227 227 228 229 231 231 230 230 228 228 230 231 233 235 236 236 237 238 242 246 251 257 263 267 270 268 266 266 269 274 281 291 300 307 311 313 313 311 310 309 308 308 308 307 307 308 310 313 314 314 314 315 315 316 317 318 319
232 230 226 223 220 220 222 222 220 218 218 222 226 226 228 231 232 234 236 237 237 238 239 243 248 253 259 263 265 265 264 262 263 267 273 281 290 300 306 310 312 311 309 308 307 306 306 306 306 306 308 310 312 312 312 313 313 314 315 317 318 319
221 219 219 220 221 224 225 223 218 212 211 215 220 223 226 229 232 234 236 238 238 238 240 244 249 255 259 261 261 261 260 260 262 266 273 281 290 299 305 309 311 309 307 306 305 304 305 305 304 305 307 309 309 309 310 311 312 314 315 316 317 318
213 215 220 222 223 224 221 219 216 210 208 211 215 221 225 228 232 234 236 237 237 238 242 246 251 255 257 257 258 259 259 260 262 266 273 281 290 298 304 307 308 307 305 304 303 303 303 303 303 304 305 306 307 307 309 310 311 312 314 316 317 316
216 220 223 223 222 221 217 214 212 210 211 213 217 223 227 231 235 237 238 239 239 241 244 246 249 252 254 257 258 258 259 260 262 266 273 281 289 296 301 304 305 305 304 302 301 301 302 301 302 302 303 304 304 305 307 308 310 312 313 314 314 314
222 224 225 224 222 220 217 216 214 215 219 223 226 230 233 236 240 241 241 241 240 240 243 245 249 253 256 258 259 259 260 261 262 267 273 281 288 293 297 301 302 303 302 300 299 300 300 299 299 300 302 302 302 304 306 307 309 311 312 312 313 314
223 225 226 225 223 220 217 217 217 220 225 228 232 235 236 239 242 241 239 238 238 241 245 248 252 255 257 259 259 259 260 261 263 268 274 280 286 291 294 297 299 300 300 297 296 298 298 297 298 299 300 301 302 304 306 307 309 310 311 312 313 314
221 222 223 223 222 219 216 217 220 224 228 230 233 236 237 238 240 239 238 239 241 243 246 249 253 256 258 260 261 261 262 263 265 269 274 279 284 288 291 294 296 298 298 295 295 297 296 295 296 298 299 300 301 304 305 306 308 310 311 311 311 312
224 227 227 224 220 219 219 221 226 230 234 237 239 239 237 237 238 239 239 240 240 242 244 248 253 257 260 262 263 263 263 264 266 269 273 277 281 285 289 291 293 295 296 294 294 295 294 294 295 297 299 299 301 303 304 304 307 309 308 307 309 312
232 232 231 228 225 225 225 227 231 236 241 244 243 239 237 237 237 238 238 238 239 241 244 247 252 257 261 263 264 264 265 265 267 269 272 275 279 283 287 289 291 293 294 293 293 294 293 292 293 295 297 298 301 303 303 304 306 306 304 305 308 309
241 237 234 232 231 230 230 231 234 239 245 248 245 240 239 238 237 237 238 238 240 242 244 247 251 256 261 263 265 265 265 266 267 268 271 274 277 281 285 287 289 291 292 292 293 293 292 292 293 295 298 300 302 303 303 304 303 301 303 305 305 304
243 240 237 236 235 234 235 235 237 242 248 251 248 244 242 239 238 239 239 240 242 242 243 245 249 254 258 261 263 265 265 265 266 267 270 273 276 280 284 285 288 290 290 290 291 291 291 292 293 296 299 301 301 301 301 302 303 304 306 306 305 307
242 241 241 240 239 238 238 238 240 244 247 248 247 246 245 242 241 241 241 242 242 241 242 244 247 251 254 257 261 263 264 265 266 267 269 272 276 280 282 284 286 288 288 288 288 289 290 292 294 297 300 300 300 302 304 308 312 314 312 309 309 312
244 244 244 244 244 243 243 243 244 245 245 246 248 248 247 246 245 244 245 245 244 243 242 244 246 249 251 254 257 260 263 265 266 268 270 273 276 279 282 283 285 286 286 286 286 287 289 291 294 297 298 299 303 307 310 313 317 314 308 306 309 313
248 248 248 249 248 247 247 247 248 248 247 248 249 250 250 251 250 249 249 248 246 244 243 243 245 248 249 252 255 258 261 264 266 268 271 274 276 279 281 283 284 285 285 284 285 287 289 290 292 294 296 300 306 308 307 309 309 303 299 301 306 310
252 251 251 252 251 250 249 249 250 250 251 251 252 254 254 254 254 254 253 252 249 245 242 242 245 247 249 252 254 257 260 263 266 269 273 275 276 279 281 282 284 285 283 283 283 284 285 286 289 292 296 300 302 301 300 300 296 293 296 300 304 309
253 252 253 254 253 253 253 252 251 251 252 253 255 256 257 258 257 257 256 256 254 249 245 243 244 248 250 252 254 257 260 262 266 270 273 275 276 278 280 282 283 283 282 282 283 283 284 285 288 292 294 296 295 295 295 291 289 294 299 302 303 307
254 253 255 257 257 257 257 257 255 254 253 253 254 255 257 257 258 258 259 259 257 253 248 245 244 247 250 252 254 257 260 263 267 270 272 275 276 277 278 278 279 279 279 280 281 282 284 286 287 290 291 291 292 294 288 283 289 298 302 300 301 305
259 258 259 260 261 261 260 259 258 257 256 256 256 256 256 256 257 258 259 259 258 255 250 247 245 247 249 252 255 258 260 264 267 269 271 273 275 276 276 275 274 274 274 275 276 278 280 282 284 286 287 288 291 289 279 281 293 301 298 296 299 303
265 264 264 263 262 261 260 259 259 260 260 260 260 258 257 257 257 258 259 259 258 256 252 248 247 248 250 252 255 258 261 264 267 268 269 269 270 272 274 273 273 272 272 273 275 276 277 278 279 280 281 284 285 279 276 284 296 298 293 293 297 300
269 267 266 265 264 262 260 260 261 262 263 263 262 259 257 257 258 260 260 260 258 254 250 247 246 247 250 253 256 259 262 264 266 267 268 268 268 268 268 268 269 271 272 272 274 275 275 276 276 276 279 281 278 274 279 289 295 291 289 291 292 294
269 268 268 267 265 263 262 262 262 262 263 263 261 259 257 258 260 262 262 260 257 253 248 246 246 248 251 253 256 259 261 264 266 267 268 269 269 268 267 265 264 266 268 270 272 273 273 274 274 275 276 275 273 276 283 288 287 285 285 285 285 287